RH
71 59 59 61 70 62 61 60 70 63 60 64 61 58 62 66 68 74 78 84 83 82 82 76 78 80 80 78 82 77 78 81 81 81 81 87 80 77 78 81 84 89 88
75 75 76 66 64 72 66 70 68 70 72 71 68 64 80 80 84 90 87 82 82 81 77 80 79 79 79 79 82 79 79 80 80 82 80 80 82 82 79 79 79 84 89
76 80 75 75 65 73 65 64 68 73 73 69 65 72 93 88 84 86 73 76 82 82 76 63 76 81 79 77 78 82 83 83 84 82 84 82 82 82 82 83 81 86 88
69 77 79 75 76 75 68 74 80 77 88 78 74 94 95 90 96 90 90 79 73 78 87 75 79 81 78 79 78 78 79 82 83 82 83 82 81 82 82 83 85 90 90
75 75 79 78 71 74 78 78 78 84 77 82 77 96 96 96 94 74 74 70 72 75 93 83 89 86 75 78 82 82 82 85 84 85 86 86 85 84 83 82 82 83 92
81 75 78 81 72 76 79 76 78 87 90 86 70 74 96 94 85 87 89 74 65 85 94 94 96 91 79 86 85 80 81 83 85 86 86 89 88 88 87 86 85 82 82
82 87 82 82 84 85 86 82 89 91 94 89 88 81 92 93 94 92 94 76 80 88 86 93 96 96 96 86 83 82 81 78 81 82 85 88 88 89 90 90 89 88 86
79 78 86 84 85 85 85 90 93 96 96 90 94 96 95 85 92 95 86 82 82 77 83 87 91 96 96 97 86 84 84 82 82 82 83 86 89 90 90 90 90 88 86
77 79 85 82 83 89 89 94 94 94 98 96 92 95 95 94 96 98 94 92 91 85 84 89 87 92 94 91 89 86 84 84 81 80 81 83 87 88 89 89 89 88 88
76 74 81 80 86 87 90 95 93 93 95 96 97 94 90 92 96 94 90 93 83 80 84 78 77 77 82 87 82 83 83 83 81 80 79 80 82 83 84 84 87 87 88
79 74 80 79 84 88 95 93 93 94 95 96 97 97 93 94 92 95 96 95 93 88 86 82 81 80 78 84 88 80 80 81 80 80 78 78 77 77 79 82 82 82 82
78 80 79 84 86 92 93 93 90 91 93 94 96 95 96 93 91 90 93 97 94 93 88 83 87 87 92 84 74 77 78 80 80 80 78 77 76 76 76 75 76 77 79
76 83 87 90 92 92 90 91 91 91 91 93 92 94 94 87 89 96 95 94 97 96 81 89 89 88 75 88 83 77 77 78 80 82 81 77 75 74 73 74 75 76 76
91 86 89 90 90 90 94 92 94 88 89 93 90 90 91 79 89 88 92 93 97 96 88 85 84 92 86 88 75 78 83 79 79 83 83 80 75 71 69 70 72 75 76
88 82 88 90 94 90 91 92 88 88 89 88 86 84 78 80 81 83 88 86 94 97 97 86 83 82 91 85 74 74 84 80 78 80 83 82 79 72 69 69 70 70 68
89 92 92 95 93 91 87 86 92 88 85 84 88 83 85 86 80 75 79 83 84 93 96 89 88 78 73 76 69 79 75 80 78 80 81 82 79 74 71 68 68 69 69
93 97 96 94 86 85 88 89 89 85 83 87 83 86 81 83 74 84 73 75 76 68 76 86 82 85 72 84 79 85 76 93 93 82 80 79 79 79 74 71 70 70 70
97 96 93 82 79 79 89 87 84 83 86 90 90 86 91 75 82 78 83 80 74 84 78 74 79 68 64 68 86 88 68 57 91 78 79 77 76 79 80 80 78 77 80
97 93 82 82 91 90 88 86 82 87 91 93 94 93 90 86 93 93 94 90 93 73 77 67 78 82 76 74 71 72 71 78 64 78 81 74 74 76 78 82 84 84 86
89 84 91 91 92 89 85 84 85 85 80 84 84 80 82 81 88 89 84 94 90 76 84 83 86 84 81 80 82 80 73 75 73 56 69 76 71 74 77 81 83 83 86
89 92 90 91 90 83 71 85 82 84 79 83 81 81 80 68 68 70 73 82 88 82 84 89 90 90 93 87 92 92 82 78 75 78 91 93 89 89 90 77 71 71 76
95 94 92 89 81 68 82 80 79 76 78 78 80 85 81 74 75 71 71 72 78 87 92 88 94 89 87 90 90 94 92 86 85 69 78 69 87 84 79 74 72 76 70
93 94 91 86 88 85 80 78 80 83 73 80 86 87 72 68 77 75 72 70 71 77 76 80 78 80 80 85 87 83 86 90 89 70 79 58 70 77 73 74 74 71 71
94 95 91 93 92 79 75 78 78 78 85 84 88 87 78 74 80 80 82 63 63 66 65 63 69 74 73 73 84 80 78 86 81 70 86 73 75 68 85 82 73 69 70
95 96 88 92 91 83 78 80 76 74 86 83 80 72 68 66 75 81 76 78 70 60 63 67 70 67 64 63 73 70 80 81 87 82 82 85 77 73 82 80 81 73 75
94 86 93 91 88 88 86 79 79 79 92 81 80 78 71 62 70 76 80 78 73 73 74 70 66 70 73 68 76 72 80 84 91 87 76 71 76 76 71 73 88 75 70
Wind_Speed
4 2 2 1 3 3 2 3 1 4 3 5 6 6 7 8 14 7 4 22 19 15 18 8 7 11 13 17 15 16 17 17 18 17 15 17 19 19 18 20 21 22 22
2 4 4 3 3 2 2 2 3 4 5 5 6 7 7 6 6 6 1 3 7 7 5 1 5 7 9 16 17 16 16 16 16 15 17 17 18 21 21 19 21 21 23
4 5 4 5 4 4 4 5 5 5 5 6 7 4 6 8 5 8 6 2 2 7 4 2 6 0 2 3 7 10 13 14 14 15 15 17 18 20 23 22 24 21 22
4 4 4 1 3 3 5 3 4 5 4 4 5 6 5 12 9 10 8 2 3 6 6 7 11 8 8 9 8 8 4 8 10 10 13 16 17 19 21 22 23 24 23
6 3 3 4 4 4 4 3 4 4 6 6 6 4 3 3 7 5 4 6 6 5 4 1 11 18 17 18 15 13 13 9 6 6 6 10 14 16 18 18 18 17 14
6 3 4 5 4 4 4 5 5 4 3 3 6 2 3 4 2 2 4 5 10 12 8 6 3 10 14 17 16 13 15 14 12 12 11 10 9 9 11 11 11 11 11
5 5 4 4 5 4 4 5 3 4 4 3 3 4 2 3 2 4 3 6 10 7 9 8 5 4 3 16 16 14 14 13 13 13 14 12 12 12 11 9 8 6 4
4 5 5 4 4 4 6 4 4 3 2 3 1 1 4 3 5 5 6 7 6 8 9 9 7 5 7 5 13 17 17 16 16 16 16 15 13 11 10 9 8 5 3
5 5 5 4 5 3 3 4 4 4 2 3 4 3 2 1 3 4 7 4 3 8 8 9 8 8 7 6 8 12 17 16 18 19 19 18 17 16 17 13 9 7 6
6 5 6 4 5 2 4 4 4 3 2 3 3 2 1 3 3 2 1 3 7 8 5 8 6 7 7 6 12 17 18 20 20 20 20 20 19 20 21 19 19 17 8
7 7 6 6 5 2 3 5 4 4 2 1 0 2 1 1 2 3 4 1 6 4 3 7 6 5 7 6 5 12 18 17 19 20 21 22 21 22 22 22 22 21 20
5 7 7 5 5 3 4 3 1 2 1 0 1 1 1 1 1 3 4 3 5 2 3 5 5 5 4 4 10 15 16 17 17 19 20 20 21 21 21 21 21 22 21
3 6 6 4 3 3 2 2 1 2 0 0 3 2 2 3 3 3 3 2 3 1 4 3 3 4 5 4 6 10 14 15 16 17 17 19 20 21 21 22 22 22 21
3 2 5 5 4 3 2 3 2 3 4 4 6 5 2 4 2 2 4 4 2 2 3 2 3 3 4 4 9 11 7 11 14 15 14 15 17 18 20 21 21 21 21
3 4 4 4 3 3 3 5 4 5 6 5 5 5 4 4 4 4 2 3 4 3 2 2 2 4 4 4 7 4 4 9 10 14 12 12 13 15 17 18 19 19 20
3 5 3 5 5 6 6 6 5 5 6 4 3 6 6 4 5 5 4 3 3 4 5 1 2 2 4 6 7 5 5 7 6 9 10 10 11 12 13 15 16 17 17
5 5 6 6 6 6 5 6 7 6 7 6 6 7 7 6 5 5 4 4 5 8 8 2 2 2 4 4 4 3 5 4 2 4 8 8 7 10 10 10 12 15 16
2 6 6 5 6 7 6 6 7 6 7 7 6 8 7 6 7 6 5 6 5 3 6 6 1 3 4 3 4 5 5 5 3 5 6 7 7 4 8 7 8 10 12
5 5 7 7 6 6 6 6 7 7 7 7 7 7 6 7 7 5 6 7 5 3 3 5 2 2 4 4 6 3 3 3 3 7 6 7 6 3 6 8 8 6 9
7 7 6 6 6 6 6 6 8 8 7 6 6 7 7 7 7 7 7 6 5 7 5 5 4 4 4 3 3 4 5 2 2 3 6 5 5 2 2 7 7 7 9
7 6 6 5 6 6 4 6 8 7 8 7 7 6 6 11 16 10 5 5 6 6 5 5 4 4 4 5 4 3 3 3 3 3 2 2 2 2 1 3 6 4 7
7 6 5 6 7 4 9 9 11 8 7 7 6 5 5 10 9 11 13 13 8 6 6 4 2 4 3 1 2 2 2 3 3 5 2 1 2 4 2 1 4 2 6
6 6 7 8 7 4 9 11 13 6 7 6 6 5 4 5 7 5 9 12 12 12 8 6 5 3 2 2 1 4 3 2 2 4 3 3 2 2 3 4 5 3 1
6 6 7 7 7 3 7 11 11 7 6 6 6 8 6 6 5 5 4 6 6 5 4 4 5 4 3 1 2 1 1 2 2 4 3 3 4 3 2 1 7 3 4
5 6 7 8 8 5 7 8 9 7 7 6 6 7 7 6 5 7 7 7 4 1 1 3 5 6 2 4 5 3 5 4 2 3 4 2 3 4 1 1 3 6 4
6 7 6 7 8 7 6 8 7 4 6 5 5 6 9 6 5 8 6 5 4 3 2 1 3 3 2 4 3 2 3 3 2 2 3 3 4 3 4 3 1 3 3
Wind_Direction
263 145 240 234 237 208 240 237 251 290 335 325 317 307 283 7 11 341 88 187 222 189 236 229 227 222 214 206 220 232 234 237 237 237 231 226 239 245 240 236 231 231 221
149 55 4 332 346 37 283 272 325 353 325 330 313 2 23 45 353 334 139 299 265 232 200 247 252 233 218 212 222 231 236 242 244 246 245 243 245 243 249 242 241 233 229
48 36 8 329 332 4 343 8 323 19 354 340 350 80 34 21 352 290 305 94 249 153 48 2 264 51 316 284 250 243 247 245 253 253 251 245 254 256 252 248 245 240 224
29 33 4 333 320 340 24 22 350 358 350 339 337 35 73 30 330 279 277 286 123 111 240 274 294 60 42 33 30 26 10 252 250 256 256 250 258 260 262 260 256 249 222
357 32 7 307 351 3 13 351 1 9 341 337 334 87 98 159 267 290 270 325 124 144 47 230 75 57 42 43 49 49 53 48 40 1 315 270 262 263 270 272 277 281 275
350 353 353 331 358 18 357 358 358 342 320 325 327 88 196 195 252 352 336 2 56 102 105 102 45 68 39 55 52 60 57 49 43 35 25 11 2 335 310 299 292 293 297
319 337 327 339 7 28 333 347 339 337 320 347 344 346 147 280 292 57 330 45 73 79 111 107 75 88 22 57 58 55 53 49 42 35 29 23 28 24 15 11 1 346 341
271 303 313 313 336 350 335 338 347 332 294 9 273 306 357 333 14 30 31 37 21 91 95 100 99 79 54 38 54 51 47 49 49 45 41 32 30 27 17 13 12 7 335
226 261 283 269 292 297 310 315 329 339 325 324 21 133 7 337 40 9 41 37 73 79 89 92 89 90 79 67 53 47 52 50 51 47 47 44 38 37 38 28 359 339 333
218 232 257 263 283 282 310 295 310 301 9 350 348 0 184 164 106 105 44 7 67 70 75 88 77 77 80 67 64 60 55 51 50 51 51 48 44 42 41 37 37 33 349
215 221 232 253 265 289 279 295 316 13 34 31 44 324 333 5 124 144 118 123 55 58 81 94 96 78 69 69 55 63 67 62 56 53 53 50 49 49 46 41 41 40 37
201 218 225 231 233 263 288 284 11 65 34 304 346 3 351 127 347 84 96 81 109 56 88 89 103 105 78 72 74 72 68 67 63 57 54 52 51 50 49 48 48 46 42
208 221 203 232 205 239 253 140 106 90 134 145 34 333 355 79 127 119 81 145 131 182 70 76 122 117 110 96 83 79 81 76 75 70 65 60 56 53 51 50 50 48 44
171 174 176 207 211 213 181 126 81 60 44 60 59 23 8 58 10 119 129 111 85 65 77 133 43 131 147 116 114 104 90 86 87 79 73 68 67 64 59 54 50 47 45
154 162 177 149 110 84 100 97 88 61 68 61 53 34 36 10 30 29 79 107 142 151 84 318 74 18 116 109 117 102 98 91 94 94 84 79 72 71 72 67 60 54 49
231 183 155 121 106 81 78 105 78 74 81 56 45 47 32 20 39 37 65 61 67 141 118 125 16 74 56 125 140 130 113 104 92 100 96 87 87 75 71 77 78 69 58
240 137 120 108 114 104 97 101 94 86 76 72 53 55 42 40 43 37 37 36 39 101 113 8 81 347 51 123 143 137 138 129 119 120 108 101 89 92 85 78 75 75 65
292 127 114 105 88 91 93 101 92 88 89 77 66 58 41 40 36 28 41 36 41 64 116 120 359 32 62 5 164 175 177 139 157 147 122 112 95 99 98 89 81 77 73
161 108 106 105 112 111 100 102 104 88 75 73 71 70 55 58 51 40 38 28 25 43 94 115 73 56 42 9 34 89 66 88 194 164 154 139 132 127 103 85 71 65 71
122 112 123 135 128 120 111 112 103 101 91 86 85 81 70 73 75 62 51 33 29 51 62 79 75 44 39 353 55 44 8 47 191 212 176 170 152 185 78 82 73 58 61
123 136 137 147 138 129 133 120 113 114 106 100 90 89 87 89 81 82 85 50 57 64 72 67 49 45 20 17 26 322 2 341 345 35 77 201 191 221 263 53 65 59 68
138 142 158 127 107 117 110 126 115 122 130 125 127 123 97 79 75 89 84 71 83 87 81 98 85 66 14 23 353 354 338 21 344 11 53 319 184 241 184 143 126 94 59
148 149 116 117 123 129 112 125 134 143 149 146 157 141 106 93 104 82 73 71 60 80 109 126 111 132 81 350 307 353 345 35 73 302 58 1 358 32 157 138 180 152 48
156 149 137 137 133 144 122 127 128 129 113 117 117 121 119 98 83 143 113 87 77 72 91 107 131 153 144 119 51 182 359 76 25 351 18 47 341 351 67 175 203 190 278
160 139 152 142 140 166 103 93 118 121 105 103 101 108 106 86 46 68 132 130 116 217 299 116 152 152 132 4 10 52 27 66 38 322 345 87 325 329 15 227 260 253 283
152 144 140 147 156 170 130 110 100 124 118 107 87 95 110 127 93 68 98 142 154 223 220 289 301 298 265 279 322 96 113 70 108 31 282 57 334 24 357 307 268 279 283